RYR143 LGAV-LGSK

Flight info

Callsign RYR143
Flight time 0h 22m
Altitude 14000
Route ROPOX M749 SIGFO
Aircraft B738/M-SDE2E3FGHIRWXY/LB1

Departure

Time 2026-05-09 09:50
Airport Athens Eleftherios Venizelos International Airport (LGAV)

Arrival

Time 2026-05-09 10:12
Airport Skiathos Island National Airport (LGSK)
Time Latitude Longitude Altitude Speed Heading
2026-05-09 09:25 37.93558 23.94799 300 ft 0 kts 306°
2026-05-09 09:34 37.93556 23.94803 300 ft 2 kts 306°
2026-05-09 09:34 37.93545 23.94822 302 ft 3 kts 308°
2026-05-09 09:36 37.93486 23.94851 302 ft 0 kts 37°
2026-05-09 09:37 37.93499 23.94863 303 ft 5 kts 38°
2026-05-09 09:37 37.93547 23.94911 301 ft 12 kts 36°
2026-05-09 09:38 37.93634 23.94992 300 ft 19 kts 34°
2026-05-09 09:38 37.93714 23.95081 301 ft 7 kts 54°
2026-05-09 09:38 37.93743 23.95163 299 ft 14 kts 64°
2026-05-09 09:38 37.93796 23.95267 299 ft 14 kts 49°
2026-05-09 09:39 37.93867 23.95344 299 ft 13 kts 37°
2026-05-09 09:39 37.93941 23.95417 298 ft 15 kts 39°
2026-05-09 09:39 37.94028 23.95497 299 ft 16 kts 37°
2026-05-09 09:39 37.94092 23.95567 300 ft 0 kts 53°
2026-05-09 09:40 37.94108 23.95605 298 ft 0 kts 70°
2026-05-09 09:40 37.94109 23.95611 298 ft 1 kts 71°
2026-05-09 09:40 37.94110 23.95612 298 ft 0 kts 71°
2026-05-09 09:42 37.94110 23.95613 298 ft 1 kts 71°
2026-05-09 09:42 37.94118 23.95666 301 ft 8 kts 79°
2026-05-09 09:43 37.94139 23.95738 299 ft 10 kts 58°
2026-05-09 09:43 37.94196 23.95809 296 ft 12 kts 37°
2026-05-09 09:43 37.94265 23.95867 296 ft 12 kts 32°
2026-05-09 09:43 37.94330 23.95925 297 ft 11 kts 41°
2026-05-09 09:44 37.94346 23.95941 298 ft 0 kts 38°
2026-05-09 09:44 37.94348 23.95943 299 ft 4 kts 37°
2026-05-09 09:44 37.94379 23.95974 300 ft 6 kts 41°
2026-05-09 09:44 37.94413 23.96005 298 ft 6 kts 35°
2026-05-09 09:45 37.94448 23.96039 300 ft 7 kts 39°
2026-05-09 09:45 37.94498 23.96085 298 ft 12 kts 34°
2026-05-09 09:45 37.94552 23.96132 300 ft 15 kts 41°
2026-05-09 09:45 37.94679 23.96254 300 ft 18 kts 39°
2026-05-09 09:46 37.94774 23.96351 299 ft 17 kts 36°
2026-05-09 09:46 37.94869 23.96439 302 ft 17 kts 37°
2026-05-09 09:46 37.94959 23.96524 301 ft 16 kts 37°
2026-05-09 09:46 37.95046 23.96607 302 ft 15 kts 37°
2026-05-09 09:47 37.95129 23.96686 303 ft 15 kts 38°
2026-05-09 09:47 37.95208 23.96760 302 ft 14 kts 37°
2026-05-09 09:47 37.95282 23.96836 302 ft 13 kts 51°
2026-05-09 09:47 37.95272 23.96939 307 ft 2 kts 121°
2026-05-09 09:48 37.95265 23.96952 305 ft 4 kts 125°
2026-05-09 09:48 37.95247 23.96983 308 ft 4 kts 125°
2026-05-09 09:49 37.95231 23.97013 310 ft 4 kts 124°
2026-05-09 09:49 37.95208 23.97031 309 ft 4 kts 182°
2026-05-09 09:49 37.95182 23.97013 309 ft 6 kts 214°
2026-05-09 09:49 37.94948 23.96790 309 ft 79 kts 217°
2026-05-09 09:50 37.94323 23.96194 288 ft 142 kts 217°
2026-05-09 09:50 37.93499 23.95378 844 ft 154 kts 217°
2026-05-09 09:50 37.92654 23.94374 1313 ft 182 kts 231°
2026-05-09 09:50 37.92471 23.92810 2162 ft 184 kts 287°
2026-05-09 09:51 37.93258 23.91623 3299 ft 176 kts 323°
2026-05-09 09:51 37.94334 23.90925 4190 ft 177 kts 332°
2026-05-09 09:51 37.95545 23.90238 4616 ft 204 kts 329°
2026-05-09 09:51 37.96884 23.89414 5095 ft 221 kts 329°
2026-05-09 09:52 37.98319 23.88500 5411 ft 242 kts 328°
2026-05-09 09:52 37.99880 23.87469 5740 ft 267 kts 327°
2026-05-09 09:52 38.01580 23.86341 6397 ft 278 kts 328°
2026-05-09 09:52 38.03277 23.85234 7305 ft 277 kts 328°
2026-05-09 09:53 38.05003 23.84117 7772 ft 278 kts 328°
2026-05-09 09:53 38.06743 23.82994 7972 ft 282 kts 328°
2026-05-09 09:53 38.08497 23.81860 7993 ft 283 kts 328°
2026-05-09 09:53 38.10261 23.80728 7984 ft 284 kts 328°
2026-05-09 09:54 38.12022 23.79604 7989 ft 281 kts 328°
2026-05-09 09:54 38.13776 23.78476 7976 ft 284 kts 327°
2026-05-09 09:54 38.15537 23.77339 7972 ft 285 kts 328°
2026-05-09 09:54 38.17393 23.76402 7983 ft 292 kts 341°
2026-05-09 09:55 38.19393 23.75984 8004 ft 295 kts 348°
2026-05-09 09:55 38.21430 23.75685 7977 ft 294 kts 349°
2026-05-09 09:55 38.23450 23.75407 7977 ft 291 kts 348°
2026-05-09 09:55 38.25448 23.75137 8024 ft 287 kts 349°
2026-05-09 09:56 38.27453 23.74858 8372 ft 293 kts 349°
2026-05-09 09:56 38.29494 23.74568 9325 ft 296 kts 348°
2026-05-09 09:56 38.31550 23.74277 10290 ft 299 kts 348°
2026-05-09 09:56 38.33682 23.73968 10767 ft 321 kts 348°
2026-05-09 09:57 38.35993 23.73625 10976 ft 348 kts 349°
2026-05-09 09:57 38.38488 23.73257 11228 ft 370 kts 349°
2026-05-09 09:57 38.41085 23.72880 11870 ft 379 kts 349°
2026-05-09 09:57 38.43706 23.72505 12788 ft 380 kts 349°
2026-05-09 09:58 38.46345 23.72127 13560 ft 385 kts 349°
2026-05-09 09:58 38.49012 23.71742 13946 ft 390 kts 349°
2026-05-09 09:58 38.51689 23.71352 13997 ft 391 kts 349°
2026-05-09 09:58 38.54338 23.70972 13997 ft 375 kts 349°
2026-05-09 09:59 38.56878 23.70607 13998 ft 360 kts 349°
2026-05-09 09:59 38.59313 23.70257 14001 ft 344 kts 349°
2026-05-09 09:59 38.61635 23.69921 14002 ft 328 kts 348°
2026-05-09 09:59 38.63857 23.69598 13991 ft 315 kts 348°
2026-05-09 10:00 38.65983 23.69287 14007 ft 301 kts 348°
2026-05-09 10:00 38.68021 23.68988 13994 ft 288 kts 348°
2026-05-09 10:00 38.69968 23.68702 14005 ft 276 kts 348°
2026-05-09 10:00 38.71836 23.68426 13999 ft 265 kts 347°
2026-05-09 10:01 38.73664 23.68153 13585 ft 270 kts 348°
2026-05-09 10:01 38.75615 23.67855 12590 ft 295 kts 348°
2026-05-09 10:01 38.77723 23.67536 11914 ft 308 kts 349°
2026-05-09 10:01 38.79821 23.67231 11738 ft 296 kts 349°
2026-05-09 10:02 38.81842 23.66939 11380 ft 289 kts 348°
2026-05-09 10:02 38.83838 23.66647 10895 ft 288 kts 348°
2026-05-09 10:02 38.85824 23.66353 10431 ft 287 kts 348°
2026-05-09 10:02 38.87800 23.66061 9962 ft 286 kts 348°
2026-05-09 10:03 38.89769 23.65771 9595 ft 280 kts 348°
2026-05-09 10:03 38.91648 23.65497 9494 ft 264 kts 348°
2026-05-09 10:03 38.93426 23.65237 9197 ft 258 kts 348°
2026-05-09 10:03 38.95211 23.64971 8794 ft 257 kts 348°
2026-05-09 10:04 38.96980 23.64709 8413 ft 255 kts 348°
2026-05-09 10:04 38.98736 23.64450 8041 ft 253 kts 349°
2026-05-09 10:04 39.00476 23.64193 7673 ft 251 kts 349°
2026-05-09 10:04 39.02207 23.63937 7304 ft 249 kts 349°
2026-05-09 10:05 39.03925 23.63684 6930 ft 247 kts 349°
2026-05-09 10:05 39.05631 23.63432 6557 ft 246 kts 349°
2026-05-09 10:05 39.07327 23.63182 6187 ft 245 kts 349°
2026-05-09 10:05 39.08930 23.62606 5760 ft 237 kts 324°
2026-05-09 10:06 39.10040 23.61111 5334 ft 230 kts 294°
2026-05-09 10:06 39.10404 23.59177 4932 ft 226 kts 267°
2026-05-09 10:06 39.10018 23.57266 4624 ft 220 kts 241°
2026-05-09 10:06 39.09057 23.55785 4360 ft 213 kts 218°
2026-05-09 10:07 39.07808 23.54830 4115 ft 204 kts 209°
2026-05-09 10:07 39.06568 23.54032 3859 ft 195 kts 208°
2026-05-09 10:07 39.05377 23.53273 3644 ft 188 kts 208°
2026-05-09 10:07 39.04218 23.52527 3513 ft 184 kts 208°
2026-05-09 10:08 39.03064 23.51775 3379 ft 189 kts 212°
2026-05-09 10:08 39.02169 23.50558 3172 ft 190 kts 246°
2026-05-09 10:08 39.01992 23.48893 2981 ft 192 kts 279°
2026-05-09 10:08 39.02571 23.47362 2808 ft 193 kts 312°
2026-05-09 10:09 39.03706 23.46509 2598 ft 191 kts 348°
2026-05-09 10:09 39.05026 23.46585 2405 ft 190 kts 12°
2026-05-09 10:09 39.06318 23.46973 2121 ft 194 kts 12°
2026-05-09 10:09 39.07639 23.47332 1690 ft 198 kts 10°
2026-05-09 10:10 39.08962 23.47584 1499 ft 184 kts
2026-05-09 10:10 39.10160 23.47787 1355 ft 161 kts
2026-05-09 10:10 39.11170 23.47981 1272 ft 136 kts
2026-05-09 10:10 39.12086 23.48172 1116 ft 131 kts 10°
2026-05-09 10:11 39.12980 23.48404 954 ft 131 kts 13°
2026-05-09 10:11 39.13872 23.48693 746 ft 135 kts 16°
2026-05-09 10:11 39.14793 23.49048 536 ft 140 kts 19°
2026-05-09 10:11 39.15719 23.49475 367 ft 143 kts 20°
2026-05-09 10:12 39.16676 23.49902 112 ft 150 kts 20°
2026-05-09 10:12 39.17627 23.50329 42 ft 133 kts 19°
2026-05-09 10:12 39.18180 23.50576 51 ft 47 kts 18°
2026-05-09 10:12 39.18410 23.50651 59 ft 14 kts
2026-05-09 10:13 39.18429 23.50694 60 ft 6 kts 99°
2026-05-09 10:13 39.18424 23.50697 58 ft 1 kts 160°
2026-05-09 10:13 39.18398 23.50682 52 ft 13 kts 202°
2026-05-09 10:13 39.18267 23.50615 56 ft 24 kts 199°
2026-05-09 10:14 39.18102 23.50541 49 ft 26 kts 199°
2026-05-09 10:14 39.17947 23.50459 42 ft 10 kts 226°
2026-05-09 10:14 39.17920 23.50369 38 ft 11 kts 247°
2026-05-09 10:14 39.17858 23.50313 38 ft 12 kts 200°
2026-05-09 10:15 39.17824 23.50266 38 ft 4 kts 281°
2026-05-09 10:15 39.17830 23.50235 38 ft 4 kts 289°
2026-05-09 10:15 39.17836 23.50212 38 ft 0 kts 289°
2026-05-09 10:16 39.17837 23.50210 38 ft 0 kts 289°
2026-05-09 10:18 39.17948 23.50260 38 ft 0 kts 289°